Home   Weather   Mahón   Past weeks

Flag for Spain Past Weather in Mahón, Menorca, Spain — Yesterday and Last 2 Weeks

Now
54 °F

Partly sunny.


Feels Like: 50 °F
Forecast: 49 / 53 °F
Wind: 15 mph from East

Location: Menorca / Mahon

Current Time: Jan 22, 2017 at 11:40:43 am

Latest Report: Jan 22, 2017 at 10:00 am


Visibility: 7 mi

Pressure: 29.82 "Hg

Humidity: 83%

Dew Point: 49 °F

Location of MahónLocation

Past Weather in Mahón — Graph

°F

Mahón Temperature Yesterday

Maximum temperature yesterday: 53 °F (at 2:00 am)
Minimum temperature yesterday: 46 °F (at 5:00 pm)
Average temperature yesterday: 50 °F

High & Low Weather Summary for the Past Weeks

 TemperatureHumidityPressure
High62 °F (Jan 12, 2:00 pm)99% (Jan 20, 5:00 am)30.42 "Hg (Jan 20, 5:00 am)
Low36 °F (Jan 17, 9:00 am)31% (Jan 14, 7:00 pm)29.73 "Hg (Jan 21, 8:00 pm)
Average49 °F75%30.07 "Hg
* Reported Jan 7 10:00 am — Jan 22 10:00 am, Mahón, Weather by CustomWeather, © 2017

Note: Actual official high and low records may vary slightly from our data, if they occured in-between our weather recording intervals... More about our weather records

Advertising

Mahón Weather History for the Previous 24 Hours

Scroll right to see more
 ConditionsComfort  
Time TempWeatherWind HumidityBarometerVisibility
10:00 am
Sun, Jan 22
54 °FPartly sunny.15 mph83%29.82 "Hg7 mi
9:00 am51 °FCool.9 mph90%29.80 "HgN/A
8:00 am50 °FOvercast.12 mph91%29.78 "Hg7 mi
7:00 am50 °FRain. Overcast.17 mph92%29.78 "Hg5 mi
6:00 am50 °FCool.17 mph91%29.75 "HgN/A
5:00 am50 °FFog.14 mph89%29.78 "HgN/A
4:00 am50 °FCool.22 mph82%29.78 "HgN/A
3:00 am52 °FCool.17 mph84%29.76 "HgN/A
2:00 am49 °FFog.20 mph84%29.77 "HgN/A
1:00 am48 °FFog.16 mph94%29.79 "HgN/A
12:00 am49 °FCool.16 mph91%29.79 "HgN/A
11:00 pm
Sat, Jan 21
49 °FFog.17 mph90%29.78 "HgN/A
10:00 pm51 °FOvercast.24 mph80%29.75 "Hg6 mi
9:00 pm49 °FCool.21 mph88%29.74 "HgN/A
8:00 pm51 °FCool.26 mph87%29.73 "HgN/A
7:00 pm47 °FOvercast.25 mph88%29.75 "Hg6 mi
6:00 pm47 °FCool.18 mph90%29.75 "HgN/A
5:00 pm46 °FCool.14 mph91%29.78 "HgN/A
4:00 pm47 °FRain. Overcast.12 mph95%29.78 "Hg2 mi
3:00 pm51 °FFog.24 mph90%29.75 "HgN/A
2:00 pm53 °FOvercast.36 mph85%29.73 "Hg3 mi
1:00 pm48 °FRain. Overcast.9 mph98%29.76 "Hg3 mi
12:00 pm48 °FFog.12 mph98%29.82 "HgN/A
11:00 am48 °FFog.17 mph97%29.83 "HgN/A
Weather by CustomWeather, © 2017

See weather overviewHow to use our weather pages